Temperature
20 20 20 20 18 18 19 20 20 20 20 20 20 20 19 18 18 17 17 17 17 18 18 18 18 18 17 18 17 17 17 17 17 17 17 17 17 17 17 17 17 17 17 17 17 17 17 17 17
20 20 20 19 18 19 19 20 20 20 20 20 20 19 18 18 17 17 17 17 17 18 17 17 17 17 17 17 17 17 17 17 17 17 17 17 17 17 17 17 17 17 17 17 17 17 17 17 17
20 20 20 18 19 19 20 20 20 21 21 21 20 19 18 18 17 17 17 17 17 17 17 17 17 17 17 17 17 17 17 17 17 17 17 16 17 17 17 17 17 17 17 17 17 17 17 17 17
20 20 20 18 19 20 20 19 20 21 21 20 19 18 18 18 18 18 17 17 18 17 17 17 17 17 17 17 17 17 17 17 17 17 17 16 16 17 17 17 16 17 17 17 17 17 17 17 17
20 20 18 18 20 20 20 20 20 20 20 20 19 18 18 18 18 18 18 18 18 17 17 17 17 17 17 17 17 17 17 17 17 17 16 16 16 16 16 16 16 16 17 17 17 17 17 17 17
20 19 18 19 20 20 20 20 21 20 20 19 18 17 17 18 18 17 18 18 18 17 17 17 17 17 17 17 17 17 17 17 17 17 17 16 16 16 16 16 16 16 17 17 16 16 16 16 16
20 18 18 19 19 20 20 21 20 20 20 19 19 17 17 18 18 18 18 18 18 18 17 17 17 17 17 17 17 17 17 16 16 16 16 16 16 16 16 16 16 16 16 17 16 16 16 16 16
21 18 19 19 19 20 21 21 21 20 20 20 20 18 17 18 18 18 18 18 18 18 17 17 17 17 17 17 17 17 17 17 16 16 16 16 16 16 16 16 16 16 16 16 16 16 16 16 16
21 18 18 19 20 20 21 21 21 21 20 20 20 19 19 18 18 18 17 17 18 18 17 17 17 17 17 17 17 17 17 16 16 16 16 16 16 16 16 16 16 16 16 16 16 16 16 16 16
21 18 19 20 20 20 21 21 21 20 19 19 19 19 19 18 18 18 18 18 18 17 17 17 17 17 17 17 17 17 17 17 16 16 16 16 16 16 16 16 16 16 16 16 16 16 16 16 16
20 19 20 20 21 21 21 21 21 20 19 19 19 19 18 18 18 18 18 18 18 18 17 17 17 17 17 17 17 17 17 17 16 16 16 16 16 16 16 16 16 16 16 16 16 16 16 16 16
20 20 21 21 21 21 21 21 20 20 20 20 20 19 18 18 18 18 18 18 18 18 18 17 17 17 17 17 17 17 17 17 17 16 16 16 16 16 16 16 16 16 16 16 16 16 16 16 16
20 20 21 21 21 21 21 20 20 20 20 20 19 19 19 18 18 18 18 18 18 18 18 18 17 17 17 17 17 17 17 17 17 17 16 16 16 16 16 16 16 16 16 16 16 16 16 16 16
21 21 21 21 21 21 20 20 20 19 20 19 19 19 19 19 19 19 18 18 18 18 18 18 18 17 17 17 17 17 17 17 17 17 17 16 16 16 16 16 16 16 16 16 16 16 16 16 16
21 20 20 21 21 21 20 19 19 20 19 19 19 19 19 19 19 19 19 19 18 18 18 18 18 18 17 17 17 17 17 17 17 17 17 17 16 16 16 16 16 16 16 16 16 16 16 16 16
20 19 19 20 20 21 20 19 19 20 19 19 19 19 19 19 19 19 19 19 19 18 18 18 18 18 17 17 17 17 17 17 17 17 17 17 17 16 16 16 16 16 16 16 16 16 16 16 16
19 18 19 19 20 20 19 19 19 20 19 19 19 19 19 19 19 19 19 19 19 19 18 18 18 18 18 17 17 17 17 17 17 17 17 17 17 17 17 16 16 16 16 16 16 16 16 16 16
19 19 19 19 20 20 19 18 19 19 19 19 19 19 19 20 20 20 19 19 19 19 18 18 18 18 17 17 17 17 17 17 17 17 17 17 17 17 16 16 16 16 16 16 16 16 16 16 16
20 19 19 20 20 20 19 19 18 19 19 19 19 19 19 20 20 20 19 19 19 19 18 18 18 18 18 17 17 17 17 17 17 17 17 16 16 16 16 16 16 16 16 16 16 16 16 16 16
20 19 19 20 21 20 19 19 18 18 18 19 19 19 20 20 20 20 19 19 19 19 19 18 18 18 18 17 17 17 17 17 17 17 16 16 16 16 16 16 16 16 16 16 16 16 16 16 15
20 19 19 19 20 19 19 18 18 18 19 19 20 20 20 20 20 20 20 19 19 19 19 19 18 18 18 17 17 17 17 17 16 16 16 16 16 16 16 16 16 16 16 16 16 16 16 16 15
19 20 20 20 18 17 19 17 17 17 18 18 19 20 20 20 20 20 20 20 19 19 19 19 18 18 18 17 17 17 17 17 17 16 16 16 16 16 16 16 16 16 16 16 16 16 16 16 15
20 21 20 20 18 17 18 17 17 17 18 18 18 19 20 20 20 20 20 20 20 19 19 19 18 18 18 18 17 17 17 17 16 16 16 16 16 16 16 16 16 16 16 16 16 16 16 15 15
21 20 19 17 17 17 18 18 17 17 18 19 19 19 20 20 20 20 20 20 20 19 19 19 19 18 18 18 17 17 17 17 17 16 16 16 16 16 16 16 16 16 16 16 15 15 15 15 15
20 17 17 17 16 17 18 18 18 19 19 19 19 20 20 20 20 20 20 20 19 19 19 19 19 18 18 18 18 17 17 17 17 17 16 16 16 16 16 16 16 16 16 15 15 15 15 15 15
19 18 17 17 17 17 18 18 18 20 20 20 20 20 20 20 20 20 20 20 20 19 19 19 19 18 18 18 18 17 17 17 17 17 17 16 16 16 16 16 16 16 15 15 15 15 15 15 15
19 18 18 17 17 17 17 18 19 20 19 19 19 19 20 20 20 20 20 20 20 19 19 19 19 18 18 18 18 17 17 17 17 17 17 16 16 16 16 16 16 16 15 15 15 15 15 15 15
20 19 17 17 17 17 17 18 17 19 19 18 18 19 19 20 20 20 20 20 20 19 19 19 19 18 18 18 18 17 17 17 17 17 17 16 16 16 16 16 16 15 15 15 15 15 15 15 14
20 19 18 16 16 16 16 17 19 18 18 18 18 19 19 20 20 20 20 20 19 19 19 19 18 18 18 18 18 17 17 17 17 17 16 16 16 16 16 16 15 15 15 15 15 15 14 14 14
20 19 18 17 16 16 16 16 19 18 19 19 19 20 20 20 20 20 20 19 19 19 19 19 18 18 18 18 17 17 17 17 17 16 16 16 16 16 16 15 15 15 15 15 15 14 14 14 14
Wind_Speed
1 2 3 3 4 4 1 1 1 2 4 4 8 9 8 6 4 6 3 7 9 7 8 10 11 11 11 11 10 11 11 11 11 11 11 11 10 10 10 10 10 9 10 10 10 10 10 10 10
1 1 3 3 3 2 0 1 4 4 5 6 8 8 8 6 5 7 4 7 9 9 9 10 12 11 11 10 11 11 11 11 11 11 10 10 10 10 10 10 9 9 10 9 9 9 9 10 10
0 1 3 3 2 2 2 2 5 5 5 4 5 6 5 4 4 5 7 9 9 8 9 10 12 11 11 11 11 11 11 11 11 11 10 10 10 10 10 9 9 9 10 9 9 9 9 9 9
2 3 3 4 3 1 3 3 4 5 5 5 6 6 4 3 3 6 9 10 10 7 9 10 12 11 11 11 11 11 11 10 10 10 10 10 10 10 9 9 9 9 9 9 8 8 8 8 9
3 4 4 3 2 1 3 3 3 4 4 5 7 6 3 3 7 11 11 10 10 7 9 10 11 11 11 10 10 10 9 9 9 10 10 9 10 10 9 9 9 9 8 8 7 7 7 8 9
4 4 4 2 1 2 2 4 5 8 7 7 7 6 2 2 7 9 10 9 9 8 8 10 11 11 10 10 9 9 9 8 8 9 9 9 9 9 9 9 8 8 8 7 7 7 8 8 9
3 3 1 1 2 2 2 3 4 6 6 4 6 6 4 3 6 8 9 9 8 8 7 6 8 9 9 9 9 8 8 7 7 7 7 7 7 7 7 8 8 7 7 7 7 7 7 8 9
4 4 2 1 2 1 1 2 3 5 4 5 5 8 6 6 6 8 8 8 7 6 5 5 6 7 7 7 7 7 6 6 6 6 6 6 6 6 6 6 6 6 6 6 6 6 6 7 8
4 4 1 1 3 2 2 3 2 3 6 4 4 5 7 10 9 9 7 5 5 6 4 4 5 5 6 5 5 5 5 5 5 5 5 5 3 3 3 3 4 5 5 4 4 5 6 6 7
4 3 2 2 2 3 3 4 4 4 7 6 7 7 9 9 10 9 8 7 6 6 6 5 5 6 6 4 4 3 3 3 3 3 3 3 2 2 1 2 3 3 3 3 4 4 5 5 5
3 4 2 1 2 4 4 3 3 7 5 6 10 12 10 8 8 8 7 6 7 7 7 6 5 6 5 3 3 2 2 2 2 2 3 3 2 2 1 2 2 3 4 4 5 6 5 5 5
3 1 3 2 3 4 4 4 4 4 5 7 11 13 11 10 9 8 7 6 5 6 6 6 5 4 4 4 3 2 1 1 1 1 3 4 3 2 2 2 2 2 3 4 5 5 6 6 7
3 1 1 3 4 5 6 5 4 4 7 9 11 10 10 10 9 8 7 6 5 5 5 5 6 5 4 3 2 2 1 1 2 2 4 5 4 2 2 1 2 2 3 4 4 4 5 5 5
4 4 3 3 3 3 6 3 4 4 8 11 11 9 8 8 9 7 7 6 6 6 6 6 6 5 5 3 2 2 2 2 4 4 4 5 6 4 3 2 2 2 3 4 4 5 4 3 4
5 5 3 1 1 2 5 2 3 6 9 9 9 8 8 7 7 9 9 8 7 6 6 6 6 5 5 4 3 3 3 4 4 5 6 7 6 5 5 3 2 2 4 5 6 6 5 4 4
3 3 1 3 2 2 5 4 5 7 9 8 7 7 7 7 8 8 8 8 7 7 6 6 7 6 6 5 4 3 4 5 4 5 6 7 7 7 5 3 3 4 5 5 4 4 4 4 3
2 1 2 3 2 2 4 4 5 7 9 9 8 7 7 7 7 7 8 9 9 8 7 6 6 6 6 5 4 4 4 4 4 5 5 6 7 7 6 4 3 5 5 3 3 3 3 2 2
2 2 1 2 3 3 3 4 4 7 9 9 8 8 8 8 9 9 8 9 8 8 8 7 6 6 5 5 4 3 3 3 4 4 4 5 6 7 7 4 4 5 4 3 3 3 3 2 1
3 2 1 3 3 3 4 5 6 7 7 8 7 7 8 9 8 8 9 9 8 8 8 7 6 5 5 4 3 3 1 1 1 2 4 5 6 6 6 4 3 3 3 3 3 3 3 2 2
2 2 1 2 1 2 3 5 5 6 8 9 10 10 9 8 6 7 8 8 9 9 9 8 7 7 6 4 4 3 2 1 1 1 3 4 5 5 5 4 3 3 3 3 3 3 2 1 2
1 3 3 2 2 3 1 4 3 4 5 6 8 9 8 10 11 10 9 8 9 9 10 9 8 7 6 6 4 3 3 3 2 1 1 1 4 5 4 4 4 3 3 3 2 3 3 2 1
2 3 4 2 2 2 0 2 6 5 5 6 8 7 9 9 9 9 10 9 10 10 9 9 8 7 6 7 6 6 4 3 3 2 1 0 2 3 4 4 4 3 3 3 2 3 2 3 1
3 2 2 2 1 2 1 2 6 1 5 8 9 9 9 9 10 10 11 11 10 9 9 9 8 7 6 7 7 7 4 3 2 1 1 0 0 2 3 4 4 3 3 3 3 3 3 2 2
2 4 5 4 3 1 4 3 4 4 7 7 7 7 8 8 9 9 9 8 7 7 7 8 8 7 6 7 7 7 6 5 4 3 2 1 0 0 1 4 4 3 3 3 3 3 3 3 3
3 5 4 4 3 4 3 2 5 6 5 7 8 8 7 7 9 9 9 8 8 8 8 7 8 7 7 7 7 7 7 7 7 5 5 3 2 1 2 2 3 2 3 3 3 3 2 2 3
1 5 5 2 3 4 3 2 5 3 2 3 5 7 7 7 7 9 10 10 9 9 9 8 8 7 8 8 7 6 6 5 5 5 5 5 4 3 3 3 3 3 4 4 3 2 2 2 2
2 2 5 5 1 1 3 3 5 3 2 1 4 6 7 7 7 8 9 10 9 9 9 9 8 7 7 7 6 5 5 5 5 5 4 4 3 3 3 3 3 3 3 3 3 2 2 2 2
5 4 4 3 2 1 4 3 4 4 3 2 4 6 7 7 6 7 8 9 9 9 7 7 7 8 7 7 6 5 5 5 4 4 4 4 4 3 4 3 3 2 2 3 3 2 2 3 2
1 1 3 4 4 4 2 5 5 6 6 5 6 6 8 8 8 7 7 7 7 6 6 6 7 6 6 5 5 4 4 4 3 3 4 4 4 4 4 4 3 3 3 3 3 3 3 3 2
4 4 5 4 3 3 3 6 6 5 5 5 6 6 7 8 7 7 7 6 6 6 6 7 7 7 6 6 5 5 4 4 3 3 3 3 4 4 4 4 3 3 3 3 4 3 3 3 2
Wind_Direction
159 87 85 59 60 64 59 308 134 81 57 53 70 81 82 63 87 128 153 137 134 130 123 118 111 105 103 101 98 97 96 94 92 90 90 90 91 92 95 96 95 93 91 88 85 83 81 77 72
110 89 72 61 82 90 47 6 86 90 133 122 78 75 77 73 81 113 128 143 135 130 125 120 116 110 107 104 101 99 98 95 93 90 90 91 90 94 96 97 98 97 95 92 89 86 82 78 73
117 101 85 71 85 139 156 160 119 99 117 106 78 57 72 100 110 130 147 143 128 124 124 124 119 114 110 107 105 103 100 99 97 92 90 91 92 95 97 98 99 99 97 94 92 87 81 78 73
73 48 54 69 73 143 156 169 125 113 83 66 94 69 58 73 123 135 137 134 128 127 127 127 121 118 115 111 108 105 102 100 99 94 91 91 92 95 98 98 98 99 99 97 93 87 82 77 71
66 70 55 54 53 59 106 134 127 104 89 87 95 95 68 31 103 123 129 131 131 131 131 130 126 123 119 116 113 110 106 104 100 96 93 92 94 96 99 100 99 100 100 98 96 87 80 75 72
55 62 70 73 79 74 93 121 108 98 108 107 103 107 105 100 112 127 132 133 134 134 133 136 134 130 125 122 119 115 113 110 104 99 97 94 94 96 98 100 100 100 98 97 92 85 79 76 74
107 87 110 148 139 116 133 119 104 112 114 127 126 110 134 146 137 134 135 133 131 132 134 136 136 135 132 129 125 121 118 116 111 106 102 99 97 101 100 101 101 102 99 96 91 86 81 78 74
130 98 50 51 134 142 157 115 119 117 114 121 121 135 161 181 147 126 125 126 131 135 140 148 144 141 140 137 134 129 124 119 113 113 109 105 101 102 104 100 102 103 102 99 90 80 80 81 74
94 77 57 234 160 169 149 106 83 79 93 72 84 136 155 149 130 121 120 119 135 149 159 160 160 159 162 160 152 139 134 129 115 115 120 107 96 99 107 111 106 105 99 91 80 72 78 76 71
93 113 222 217 181 163 151 134 127 94 87 88 88 97 124 132 132 137 144 150 155 164 181 183 179 180 180 173 145 145 135 129 119 123 128 124 124 120 111 115 103 100 86 68 64 67 78 71 64
126 156 180 133 145 136 119 109 113 120 122 150 145 145 142 138 141 149 158 162 168 174 180 183 176 173 169 147 145 144 137 137 125 131 154 151 123 102 101 84 67 59 62 51 52 61 67 80 85
123 154 159 154 133 116 115 114 103 132 164 160 151 151 149 154 162 165 166 169 161 159 170 170 167 160 159 150 150 153 153 159 150 169 160 146 128 108 101 84 71 68 74 71 68 72 80 83 91
117 155 121 129 112 114 107 106 118 128 128 134 138 143 152 161 169 173 169 163 154 153 154 158 159 160 154 139 147 136 158 160 143 118 131 145 136 128 120 94 75 66 77 87 88 85 84 86 88
139 118 90 107 110 115 115 109 107 148 139 139 145 153 162 167 172 168 170 169 168 163 160 155 152 152 139 137 141 130 144 123 96 93 111 133 135 132 121 102 89 70 77 88 94 95 92 83 85
112 85 37 339 132 149 113 86 175 165 148 149 159 165 170 174 173 176 179 176 174 170 158 148 142 135 129 126 122 111 108 98 84 84 92 102 120 124 119 107 96 86 92 90 85 82 80 75 76
70 66 23 280 167 170 133 194 215 166 155 163 173 177 177 183 186 186 180 176 172 164 153 150 139 131 122 117 108 102 96 94 88 92 93 94 103 115 109 103 93 97 95 92 87 79 75 67 70
33 136 214 279 211 162 152 201 218 178 169 178 185 187 190 189 190 188 182 177 169 163 152 142 137 137 132 119 103 91 89 87 90 92 92 91 94 108 109 101 97 98 88 76 93 77 88 85 68
221 197 202 233 241 159 167 212 207 193 186 192 195 194 195 195 198 189 182 173 164 158 151 147 143 143 133 109 89 74 67 62 76 89 94 95 100 112 109 102 94 97 88 72 78 83 66 77 72
202 161 190 245 231 173 196 215 218 206 202 200 199 198 203 207 205 190 180 167 160 157 155 155 150 152 136 122 119 111 105 74 52 71 96 100 109 115 110 107 100 100 104 109 104 93 71 45 55
139 138 191 273 265 176 212 242 233 211 205 200 196 200 203 204 199 193 182 169 167 166 165 164 163 161 159 153 147 146 142 142 132 71 83 104 114 122 121 121 117 114 108 94 93 99 92 42 56
257 185 191 203 6 15 30 324 278 252 225 214 208 205 200 196 193 190 181 178 173 172 173 173 174 169 168 153 123 100 75 53 45 41 42 78 113 122 125 126 127 124 122 125 123 123 121 115 24
241 224 164 143 71 292 219 282 277 243 236 225 222 212 205 199 189 183 179 178 178 180 174 170 171 171 167 152 148 149 154 171 198 188 182 69 109 121 134 134 132 133 129 130 139 132 130 129 115
210 197 145 148 135 331 290 202 287 255 235 235 226 216 209 200 189 181 181 180 178 175 170 171 168 169 165 162 162 158 164 177 179 157 151 170 75 116 137 142 136 136 138 142 135 124 122 128 140
137 51 35 46 73 307 247 189 275 235 222 226 218 210 206 197 186 180 178 169 169 168 165 166 166 173 170 167 166 165 170 168 162 171 175 196 223 3 134 140 136 135 139 148 145 135 131 133 129
65 79 32 6 8 269 271 195 253 254 228 205 196 195 193 184 177 175 172 171 169 170 172 170 168 174 176 173 176 176 175 174 180 184 186 183 179 198 199 143 139 138 144 146 136 130 126 135 132
219 139 150 190 239 291 329 272 271 278 229 185 174 172 169 167 175 178 179 177 175 176 176 176 175 178 179 179 187 183 181 182 190 189 186 189 190 200 187 161 150 144 141 137 125 122 135 126 137
164 193 176 151 221 304 302 303 318 354 34 118 144 155 168 173 178 180 180 178 177 178 182 181 176 177 183 184 183 187 189 185 189 187 181 184 187 186 165 157 157 149 139 138 132 127 136 119 121
171 158 99 113 147 282 310 298 264 270 262 220 188 187 189 182 181 179 180 181 181 183 184 174 172 176 182 179 180 186 189 185 184 170 171 175 179 171 156 159 156 147 140 135 131 129 128 116 110
140 126 133 139 158 159 261 273 238 226 231 217 212 202 192 184 182 181 182 182 178 173 172 171 174 171 173 175 173 165 171 176 164 166 179 180 172 165 163 164 155 155 157 146 134 146 139 134 124
176 185 153 155 216 174 182 264 263 225 229 211 208 206 194 184 179 177 173 167 165 168 171 171 174 172 174 170 159 161 159 151 151 161 172 165 157 162 160 154 149 160 164 155 149 157 150 151 155
Height
1521 1520 1521 1522 1524 1531 1534 1528 1522 1522 1522 1523 1522 1523 1526 1530 1534 1541 1539 1538 1540 1540 1540 1540 1540 1540 1540 1540 1539 1539 1539 1538 1538 1537 1537 1537 1536 1536 1536 1536 1537 1537 1537 1538 1538 1538 1538 1538 1538
1521 1521 1522 1522 1528 1539 1536 1526 1524 1522 1523 1523 1524 1526 1528 1532 1534 1536 1537 1539 1540 1540 1541 1541 1541 1541 1541 1540 1540 1540 1539 1539 1539 1538 1538 1537 1537 1537 1537 1537 1538 1538 1538 1538 1538 1539 1539 1539 1539
1521 1521 1522 1524 1530 1536 1533 1526 1523 1522 1523 1523 1526 1529 1531 1534 1536 1537 1538 1540 1541 1541 1541 1541 1542 1542 1541 1541 1541 1540 1540 1540 1540 1539 1539 1539 1538 1538 1538 1538 1539 1539 1539 1539 1539 1540 1540 1540 1540
1522 1522 1523 1528 1531 1528 1526 1524 1523 1523 1524 1525 1527 1532 1534 1536 1536 1537 1539 1540 1541 1541 1542 1542 1542 1542 1542 1542 1542 1541 1541 1541 1541 1540 1540 1540 1540 1539 1539 1540 1540 1540 1540 1541 1541 1541 1541 1541 1541
1522 1522 1527 1532 1530 1526 1524 1524 1524 1524 1525 1528 1528 1533 1536 1538 1538 1539 1540 1541 1542 1542 1543 1543 1543 1543 1543 1543 1543 1543 1543 1542 1542 1542 1542 1541 1541 1541 1541 1541 1541 1541 1541 1542 1542 1542 1542 1542 1542
1523 1524 1534 1538 1531 1527 1525 1525 1524 1526 1528 1530 1531 1534 1538 1540 1539 1540 1542 1543 1543 1544 1544 1544 1544 1544 1544 1544 1544 1544 1544 1544 1544 1543 1543 1543 1542 1542 1542 1542 1542 1543 1543 1543 1543 1543 1543 1543 1543
1524 1527 1534 1533 1532 1529 1527 1525 1525 1526 1528 1530 1531 1534 1538 1540 1541 1541 1543 1544 1544 1545 1545 1545 1546 1546 1546 1546 1546 1546 1545 1545 1545 1545 1544 1544 1544 1544 1544 1544 1544 1544 1544 1544 1544 1545 1545 1545 1545
1523 1527 1532 1533 1532 1530 1526 1526 1526 1527 1529 1531 1531 1533 1537 1540 1541 1542 1544 1545 1545 1546 1546 1546 1547 1547 1547 1547 1547 1547 1547 1547 1547 1546 1546 1546 1546 1546 1545 1545 1546 1546 1546 1546 1546 1546 1546 1546 1546
1523 1531 1536 1532 1530 1528 1526 1526 1527 1528 1528 1530 1531 1532 1535 1539 1541 1543 1544 1545 1546 1547 1547 1548 1548 1548 1548 1548 1548 1548 1548 1548 1548 1548 1547 1547 1547 1547 1547 1547 1547 1547 1547 1548 1548 1548 1548 1548 1548
1523 1533 1531 1526 1525 1526 1526 1526 1527 1529 1530 1531 1533 1534 1537 1539 1542 1543 1544 1545 1546 1547 1548 1549 1549 1549 1549 1550 1550 1550 1550 1549 1549 1549 1549 1548 1548 1548 1548 1548 1549 1549 1549 1549 1549 1549 1549 1549 1549
1523 1528 1525 1525 1524 1525 1525 1526 1528 1529 1532 1532 1532 1535 1538 1540 1542 1544 1545 1545 1546 1547 1548 1549 1550 1550 1551 1551 1551 1551 1551 1551 1551 1550 1550 1550 1549 1549 1549 1549 1550 1550 1550 1550 1550 1550 1550 1550 1550
1524 1524 1524 1525 1525 1525 1526 1527 1529 1529 1531 1532 1533 1534 1537 1540 1542 1543 1544 1546 1547 1548 1549 1550 1551 1551 1552 1552 1552 1552 1552 1552 1552 1551 1551 1551 1551 1550 1551 1551 1551 1551 1552 1552 1552 1552 1552 1552 1552
1524 1525 1525 1525 1525 1525 1526 1527 1528 1530 1531 1532 1534 1536 1538 1540 1542 1543 1545 1546 1547 1548 1549 1550 1551 1552 1553 1553 1553 1553 1552 1552 1552 1552 1552 1552 1552 1552 1552 1552 1552 1553 1553 1553 1553 1553 1553 1553 1553
1525 1525 1525 1526 1526 1526 1527 1529 1529 1531 1532 1533 1534 1536 1538 1540 1541 1543 1544 1546 1547 1548 1549 1550 1551 1552 1553 1553 1553 1553 1553 1553 1553 1553 1553 1553 1553 1553 1553 1553 1554 1554 1554 1554 1554 1554 1554 1554 1554
1524 1526 1527 1526 1526 1527 1529 1532 1531 1531 1533 1534 1535 1536 1538 1539 1541 1542 1543 1545 1546 1548 1549 1550 1551 1552 1553 1553 1554 1554 1554 1554 1554 1554 1554 1554 1554 1554 1554 1554 1554 1555 1555 1555 1555 1555 1555 1555 1555
1526 1531 1535 1529 1527 1527 1532 1538 1531 1531 1532 1534 1535 1536 1537 1539 1540 1541 1543 1545 1546 1548 1549 1550 1551 1552 1553 1554 1554 1554 1555 1555 1555 1555 1555 1555 1555 1555 1555 1555 1555 1556 1556 1556 1556 1555 1555 1556 1556
1533 1539 1538 1532 1526 1527 1531 1535 1530 1530 1532 1533 1534 1535 1536 1538 1539 1541 1543 1544 1546 1547 1549 1550 1551 1552 1553 1554 1554 1555 1555 1555 1555 1555 1555 1555 1556 1556 1556 1556 1556 1556 1556 1556 1556 1556 1556 1556 1557
1538 1537 1536 1534 1527 1527 1531 1531 1529 1530 1531 1531 1532 1533 1535 1536 1537 1539 1541 1543 1545 1546 1548 1549 1551 1552 1553 1554 1554 1555 1555 1555 1556 1556 1556 1556 1556 1556 1556 1556 1556 1556 1556 1556 1556 1557 1557 1557 1557
1529 1532 1535 1531 1525 1527 1530 1530 1529 1528 1529 1530 1531 1532 1533 1534 1536 1538 1540 1542 1544 1546 1547 1549 1550 1551 1552 1553 1554 1554 1555 1555 1556 1556 1556 1556 1556 1556 1556 1556 1556 1557 1557 1557 1557 1557 1557 1557 1558
1528 1533 1534 1529 1524 1527 1530 1529 1526 1526 1526 1527 1528 1529 1530 1532 1534 1536 1538 1541 1542 1544 1546 1547 1549 1550 1551 1552 1553 1554 1555 1555 1556 1556 1556 1556 1556 1556 1557 1557 1557 1557 1557 1557 1557 1557 1558 1558 1558
1529 1531 1532 1531 1528 1527 1530 1534 1529 1524 1524 1525 1525 1526 1527 1529 1531 1534 1536 1539 1541 1543 1544 1546 1548 1549 1550 1552 1553 1553 1554 1555 1555 1556 1556 1556 1556 1556 1557 1557 1557 1557 1557 1557 1557 1558 1558 1558 1558
1532 1524 1525 1528 1535 1541 1535 1547 1532 1525 1524 1522 1523 1524 1525 1527 1529 1532 1534 1537 1539 1541 1543 1545 1547 1548 1549 1550 1551 1552 1553 1554 1554 1555 1555 1556 1556 1556 1556 1557 1557 1557 1557 1557 1557 1558 1558 1558 1558
1526 1522 1524 1527 1534 1541 1538 1544 1537 1526 1526 1521 1520 1520 1522 1524 1527 1529 1532 1534 1537 1540 1542 1544 1545 1547 1548 1549 1550 1551 1552 1553 1554 1554 1555 1555 1555 1556 1556 1556 1556 1557 1557 1557 1557 1557 1558 1558 1558
1521 1525 1528 1533 1540 1550 1539 1543 1540 1528 1521 1517 1517 1518 1520 1522 1525 1528 1530 1533 1536 1538 1540 1542 1543 1545 1547 1548 1549 1550 1551 1552 1552 1553 1554 1554 1554 1555 1555 1555 1556 1556 1556 1556 1557 1557 1557 1558 1558
1524 1538 1551 1553 1557 1552 1536 1538 1534 1518 1514 1513 1514 1515 1518 1521 1523 1526 1528 1531 1533 1536 1538 1540 1542 1543 1545 1546 1548 1549 1549 1550 1551 1552 1553 1553 1554 1554 1555 1555 1555 1555 1556 1556 1556 1557 1557 1557 1557
1527 1534 1551 1560 1560 1552 1537 1538 1527 1513 1511 1511 1512 1514 1517 1520 1522 1524 1526 1528 1531 1534 1536 1538 1540 1542 1543 1545 1546 1547 1548 1549 1550 1551 1552 1552 1553 1553 1554 1554 1554 1555 1555 1556 1556 1556 1556 1556 1556
1527 1531 1531 1544 1547 1553 1545 1533 1522 1513 1512 1512 1513 1514 1516 1518 1520 1522 1524 1527 1529 1532 1534 1536 1538 1540 1541 1543 1545 1546 1547 1548 1548 1550 1550 1551 1552 1552 1553 1553 1554 1554 1554 1555 1555 1555 1555 1555 1555
1520 1524 1535 1544 1554 1558 1548 1540 1534 1520 1516 1514 1513 1514 1515 1517 1519 1521 1523 1525 1528 1530 1532 1534 1536 1538 1540 1541 1543 1544 1545 1546 1547 1548 1549 1549 1550 1551 1551 1552 1552 1553 1553 1553 1553 1554 1554 1554 1554
1522 1526 1530 1540 1543 1555 1557 1546 1519 1516 1514 1513 1512 1513 1514 1515 1518 1519 1521 1524 1526 1529 1531 1533 1534 1536 1538 1540 1541 1542 1543 1544 1545 1546 1547 1548 1549 1549 1550 1550 1551 1551 1552 1552 1552 1552 1552 1552 1552
1517 1521 1528 1541 1544 1544 1550 1543 1512 1511 1510 1510 1510 1511 1513 1514 1516 1518 1520 1523 1525 1527 1529 1530 1532 1534 1536 1538 1539 1541 1542 1543 1544 1545 1545 1546 1547 1548 1548 1549 1549 1550 1550 1550 1551 1551 1551 1551 1551